Lid_Strength_Index
7 6 5 5 4 0 0 0 0 0 0 0 0 0 0 -0 0 0 0 -0 0 -0 0 3 4 4 4 3 3 2 3 3
6 6 5 5 5 4 2 1 1 0 1 2 2 2 1 1 0 1 1 -0 -0 0 1 3 4 4 4 3 3 4 4 3
8 7 6 6 5 5 4 4 2 1 1 2 3 3 3 4 3 2 1 1 1 2 2 3 5 4 4 4 3 5 5 3
9 9 8 7 7 6 6 6 4 3 2 1 1 2 4 4 5 4 3 2 1 1 2 3 3 4 5 3 3 4 6 4
9 9 8 7 7 6 6 5 5 5 4 3 2 2 3 3 4 3 2 2 2 2 1 2 3 3 3 4 3 4 5 6
9 8 8 7 7 7 6 5 5 5 4 4 4 3 1 1 1 2 2 1 2 1 1 1 2 3 3 3 3 3 3 3
9 8 8 8 7 7 6 6 6 5 4 3 3 2 2 2 2 2 1 1 1 2 3 3 3 2 2 3 2 2 4 4
9 9 9 8 8 7 7 6 6 5 4 3 2 2 2 2 2 1 2 2 1 1 2 1 1 2 2 2 3 3 3 4
9 9 9 8 8 7 6 6 5 4 3 3 2 2 2 1 1 2 2 2 1 0 0 1 1 2 2 3 3 3 3 4
9 9 9 8 7 6 5 4 3 3 3 2 2 2 1 2 2 2 2 2 2 1 0 0 0 1 1 2 1 3 3 3
10 9 8 7 6 4 3 2 2 2 2 2 1 1 1 1 1 1 2 1 2 2 1 1 1 1 0 1 1 2 2 3
10 9 7 5 4 4 3 3 2 2 3 3 1 1 1 2 2 2 2 3 3 2 2 3 2 1 1 1 2 2 3 3
8 6 5 5 4 4 4 4 4 3 3 1 1 0 1 2 2 3 3 4 3 4 3 3 2 1 1 1 2 1 2 2
7 6 5 5 3 3 3 1 2 3 3 2 1 1 1 2 3 4 3 3 3 4 3 3 3 3 2 1 1 1 1 1
6 6 4 3 2 2 3 4 4 5 5 2 3 3 2 2 2 3 3 4 5 4 4 4 4 3 1 2 3 1 1 1
6 5 3 2 3 4 4 6 6 5 3 3 4 3 4 5 4 4 4 4 3 3 2 3 2 2 2 2 2 3 2 1
6 4 3 3 4 5 5 7 5 3 4 5 5 5 4 4 4 3 4 4 4 3 4 3 3 3 5 5 5 3 4 4
5 3 3 3 4 4 6 9 8 6 5 5 5 5 5 4 3 3 4 5 6 6 6 5 5 4 6 6 6 3 3 4
4 3 3 3 4 4 5 8 8 8 6 6 5 5 5 5 5 5 5 6 7 7 7 6 6 6 7 7 7 5 3 4